Time_in_sec,Mx,My,Mz
1314362977.92148376,-0.57103932,0.87851810,-0.74313748
1314362977.97312140,-0.56547081,0.88321555,-0.74581206
1314362978.02148032,-0.57040423,0.87926155,-0.74162567
1314362978.06851029,-0.56722778,0.88014144,-0.74346763
1314362978.12145209,-0.57119554,0.87775737,-0.74354458
1314362978.16853762,-0.56662959,0.88038129,-0.74262720
1314362978.22005439,-0.57306421,0.87932497,-0.74474132
1314362978.26861548,-0.56787568,0.88014162,-0.74283206
1314362978.32149363,-0.57152587,0.87863988,-0.74208969
1314362978.36964893,-0.56726569,0.87976575,-0.74414003
1314362978.42043638,-0.57248586,0.88086998,-0.74633479
1314362978.46890163,-0.56645751,0.87899369,-0.74449128
1314362978.52152991,-0.57490450,0.87629163,-0.74603641
1314362978.56898284,-0.56719649,0.88016021,-0.74521583
1314362978.61795330,-0.57339919,0.87857366,-0.74583191
1314362978.66859818,-0.56661606,0.88144952,-0.74680722
1314362978.72156310,-0.57291877,0.87819779,-0.74701273
1314362978.76952338,-0.56543088,0.88095963,-0.74996555
1314362978.81800270,-0.57565367,0.87771541,-0.74689811
1314362978.86859822,-0.56677741,0.88132799,-0.74721950
1314362978.92148590,-0.57304209,0.88049442,-0.74649876
1314362978.96860385,-0.56591755,0.87903893,-0.74917161
1314362979.01777267,-0.57196289,0.88012779,-0.74912566
1314362979.06887531,-0.56823403,0.87893373,-0.74890101
1314362979.12047601,-0.57137775,0.87804753,-0.74651867
1314362979.16949821,-0.56814742,0.87919718,-0.74970561
1314362979.22161674,-0.57202566,0.88169640,-0.75223708
1314362979.26894259,-0.56704319,0.87994987,-0.74951279
1314362979.32081318,-0.57456058,0.87749851,-0.75154448
1314362979.36937284,-0.56904095,0.88026565,-0.75299591
1314362979.41773748,-0.57402897,0.87685752,-0.75191271
1314362979.46852827,-0.56925708,0.88102347,-0.75193727
1314362979.52049565,-0.57417840,0.87816268,-0.75421953
1314362979.56970000,-0.56691873,0.88423777,-0.75599897
1314362979.62048483,-0.57610977,0.87867153,-0.75204676
1314362979.66863203,-0.56988192,0.87900156,-0.75343883
1314362979.70948172,-0.57351500,0.88032967,-0.75433207
1314362979.76861358,-0.57401085,0.87955958,-0.75354731
1314362979.82146382,-0.57418841,0.88148367,-0.75397587
1314362979.86848235,-0.56879199,0.88052285,-0.75338727
1314362979.92161679,-0.57555974,0.87777174,-0.75214279
1314362979.96948671,-0.56845957,0.88040590,-0.75471324
1314362980.02145267,-0.57278597,0.88215065,-0.75793797
1314362980.06859708,-0.56857270,0.88142401,-0.75418901
1314362980.12121272,-0.57336497,0.87981510,-0.75418490
1314362980.16959739,-0.56844729,0.88091415,-0.75444710
1314362980.22147894,-0.57209271,0.88071281,-0.75573331
1314362980.26862693,-0.56858432,0.88272756,-0.75648779
1314362980.32206106,-0.57403898,0.87882382,-0.75637013
1314362980.36950445,-0.56711340,0.88197726,-0.75949299
1314362980.41796231,-0.57461208,0.87970328,-0.75439078
1314362980.46861506,-0.56887227,0.88018006,-0.75702369
1314362980.51350641,-0.57327938,0.88020647,-0.75499052
1314362980.56971002,-0.57470250,0.88166022,-0.75791049
1314362980.62144113,-0.57419407,0.87997764,-0.75652236
1314362980.66859341,-0.56978786,0.88212156,-0.75830275
1314362980.72061706,-0.57360858,0.88062769,-0.75810868
1314362980.76876473,-0.57115644,0.87996578,-0.75850028
1314362980.82062793,-0.57436740,0.88207811,-0.76139402
1314362980.86862659,-0.57022214,0.88049567,-0.76114237
1314362980.92150760,-0.57418120,0.88025528,-0.75854284
1314362980.96876073,-0.57018220,0.88061565,-0.76046795
1314362981.02051663,-0.57302487,0.87857252,-0.75779027
1314362981.06849575,-0.56800991,0.88342929,-0.76278633
1314362981.12154913,-0.57635427,0.87825727,-0.76067257
1314362981.16949272,-0.56984288,0.88358587,-0.76356661
1314362981.22048759,-0.57394707,0.87913585,-0.76161683
1314362981.26858091,-0.57025087,0.87999052,-0.76167864
1314362981.32074881,-0.57647294,0.87981188,-0.76244104
1314362981.36861515,-0.56861234,0.88063711,-0.76401162
1314362981.42160106,-0.57404542,0.87813342,-0.76336485
1314362981.46150327,-0.57045048,0.87939048,-0.76505083
1314362981.52059221,-0.57070845,0.88232642,-0.76441485
1314362981.57079458,-0.57058161,0.88077027,-0.76251125
1314362981.61771846,-0.57426482,0.88223565,-0.76421607
1314362981.66967058,-0.57187879,0.88181692,-0.76340181
1314362981.70946598,-0.57565850,0.88133645,-0.76240540
1314362981.76961136,-0.57569444,0.87968379,-0.76320267
1314362981.82144642,-0.57449293,0.88054550,-0.76138979
1314362981.86238790,-0.57074893,0.88345826,-0.76267576
1314362981.91802549,-0.56932479,0.88289791,-0.75962782
1314362981.96945882,-0.56612873,0.88645482,-0.76081580
1314362982.01802373,-0.57366884,0.88306469,-0.75880355
1314362982.06866908,-0.56751299,0.88144404,-0.75708920
1314362982.12069345,-0.57255036,0.88202745,-0.75859642
1314362982.16851449,-0.56734657,0.88092631,-0.75667185
1314362982.22173262,-0.57118821,0.88222009,-0.75421166
1314362982.26966166,-0.56721550,0.88192248,-0.75438344
1314362982.31801438,-0.57142043,0.88002008,-0.75151640
1314362982.36948824,-0.56731498,0.88138133,-0.75155836
1314362982.42149019,-0.57073426,0.88414711,-0.75554597
1314362982.46863055,-0.56510395,0.88137913,-0.75358421
1314362982.52156019,-0.57078481,0.88053286,-0.75229114
1314362982.56955385,-0.56768572,0.88101983,-0.75319237
1314362982.62146163,-0.57224852,0.88005477,-0.75385290
1314362982.67253804,-0.56725842,0.88320726,-0.75493401
1314362982.71351123,-0.57296705,0.87968558,-0.75443012
1314362982.76869082,-0.57171583,0.88030720,-0.75409317
1314362982.82150888,-0.57183820,0.88145477,-0.75370508
1314362982.86967444,-0.56527919,0.88110781,-0.75197697
1314362982.92070746,-0.57160640,0.87888205,-0.75246084
1314362982.96870327,-0.56771636,0.88281286,-0.75347686
1314362983.02158642,-0.57056963,0.88092417,-0.75322390
1314362983.07361197,-0.56598139,0.87971419,-0.75241095
1314362983.12160492,-0.57160938,0.88028681,-0.75233698
1314362983.17348456,-0.56745833,0.88089818,-0.75398594
1314362983.22161579,-0.57000732,0.88053262,-0.75305378
1314362983.26961303,-0.56786197,0.88087636,-0.75158626
1314362983.32064629,-0.57159203,0.87913460,-0.75219274
1314362983.37351370,-0.56658459,0.88113481,-0.75312954
1314362983.42049861,-0.57063484,0.87899709,-0.75227094
1314362983.46867943,-0.56704694,0.88319153,-0.75371021
1314362983.52065039,-0.56971651,0.87963289,-0.75289559
1314362983.56955910,-0.56545454,0.88346398,-0.75685072
1314362983.62065721,-0.57248622,0.87941247,-0.75332338
1314362983.66864085,-0.56638038,0.87997162,-0.75216675
1314362983.72167063,-0.57030743,0.88054055,-0.75347507
1314362983.76863313,-0.56737173,0.88116169,-0.75479060
1314362983.82147384,-0.57105362,0.88055956,-0.75446057
1314362983.86949992,-0.56606066,0.88026476,-0.75591946
1314362983.92063189,-0.57260960,0.87966669,-0.75306320
1314362983.96947789,-0.56731892,0.88155931,-0.75613660
1314362984.02077889,-0.57089674,0.88211095,-0.75621307
1314362984.06881499,-0.56819218,0.88142544,-0.75470543
1314362984.12062883,-0.57315838,0.88112640,-0.75741339
1314362984.16961837,-0.56880403,0.88172364,-0.75797361
1314362984.22146153,-0.57107955,0.88161057,-0.75702757
1314362984.26866126,-0.56716108,0.88196158,-0.75801498
1314362984.32161903,-0.57198763,0.88173866,-0.75613880
1314362984.36947274,-0.56496012,0.88528031,-0.75979710
1314362984.42132711,-0.57223451,0.88122576,-0.75574541
1314362984.46865559,-0.56686705,0.88272077,-0.75759983
1314362984.52150059,-0.57009476,0.88108474,-0.75669742
1314362984.56985092,-0.56754982,0.88094050,-0.75776058
1314362984.62146568,-0.57139504,0.88149375,-0.75771797
1314362984.67247629,-0.56834304,0.88173443,-0.75942773
1314362984.72224641,-0.57055241,0.88239944,-0.75956053
1314362984.76946878,-0.56868368,0.88185298,-0.75823683
1314362984.82149243,-0.57125092,0.88243407,-0.76202410
1314362984.87749290,-0.56951356,0.87816125,-0.75879550
1314362984.92061067,-0.57297498,0.88139611,-0.75888544
1314362984.96871328,-0.56780475,0.88111693,-0.76194942
1314362985.02151847,-0.57153112,0.88317931,-0.75975758
1314362985.06066775,-0.57055491,0.88255233,-0.76185012
1314362985.12067032,-0.56820667,0.88277912,-0.76158136
1314362985.16948056,-0.56720567,0.88725352,-0.76263398
1314362985.22162390,-0.57176363,0.88291901,-0.75909603
1314362985.26867151,-0.56943339,0.88113153,-0.76163995
1314362985.32060575,-0.57338870,0.88129818,-0.76119697
1314362985.37276459,-0.57078135,0.88152486,-0.76118243
1314362985.42146444,-0.57321560,0.88080394,-0.76293314
1314362985.46946192,-0.56979895,0.88217324,-0.76301497
1314362985.52162266,-0.57204276,0.88116050,-0.76165652
1314362985.56954169,-0.57016414,0.88229650,-0.76222938
1314362985.62135983,-0.57164448,0.88478243,-0.76596814
1314362985.66966867,-0.56885201,0.88127172,-0.76335728
1314362985.71003747,-0.57042474,0.88232160,-0.76426375
1314362985.76866317,-0.57382607,0.88005584,-0.76403964
1314362985.82146668,-0.57382089,0.88145906,-0.76378071
1314362985.87354469,-0.56770718,0.88395625,-0.76452267
1314362985.92166686,-0.57327694,0.88132632,-0.76388282
1314362985.96948934,-0.56811482,0.88309115,-0.76682806
1314362986.02065516,-0.57236332,0.88168299,-0.76235199
1314362986.06861782,-0.56980455,0.88066721,-0.76556152
1314362986.12159038,-0.57265431,0.88054025,-0.76276404
1314362986.16858506,-0.57038790,0.88180393,-0.76371932
1314362986.22148180,-0.57394224,0.88145751,-0.76351851
1314362986.26855755,-0.56821698,0.88201517,-0.76184541
1314362986.32059216,-0.57217604,0.88075352,-0.75937283
1314362986.37194180,-0.56935257,0.88022250,-0.76041698
1314362986.42163467,-0.56940150,0.88431680,-0.76071984
1314362986.46859097,-0.56755292,0.88132405,-0.75776362
1314362986.52058482,-0.57142776,0.88252127,-0.75813138
1314362986.57203841,-0.56894594,0.88121539,-0.75811261
1314362986.62056541,-0.56889629,0.88233000,-0.75488758
1314362986.67250943,-0.56649023,0.88129395,-0.75608665
1314362986.72048616,-0.56916982,0.88207752,-0.75490147
1314362986.76946402,-0.56471443,0.88523328,-0.75574434
1314362986.82058787,-0.56905586,0.88024378,-0.75097752
1314362986.86856484,-0.56696820,0.88151693,-0.75261623
1314362986.92059612,-0.56806213,0.88254946,-0.75241804
1314362986.96850920,-0.56663883,0.88178349,-0.75394523
1314362987.02146459,-0.56815791,0.88241535,-0.75174952
1314362987.06862950,-0.56644475,0.88189876,-0.75299263
1314362987.12061381,-0.56816173,0.87996590,-0.74984682
1314362987.16947460,-0.56682426,0.88279068,-0.75234824
1314362987.22050047,-0.56721163,0.88539320,-0.75615919
1314362987.26852703,-0.56589824,0.88127971,-0.75537926
1314362987.32166624,-0.56905109,0.88154417,-0.75300610
1314362987.36863136,-0.56580347,0.88154161,-0.75604880
1314362987.42148471,-0.56905454,0.88284618,-0.75516981
1314362987.46854162,-0.56636769,0.88423133,-0.75596702
1314362987.52056098,-0.57038414,0.88195944,-0.75456703
1314362987.56954479,-0.56475067,0.88552028,-0.75857532
1314362987.62061930,-0.56939375,0.88191843,-0.75181729
1314362987.66853166,-0.56490272,0.88162065,-0.75249749
1314362987.70949960,-0.56858957,0.88370025,-0.75191879
1314362987.76860237,-0.56714952,0.88201272,-0.75101513
1314362987.82147217,-0.56624812,0.88390356,-0.74949652
1314362987.86862659,-0.56514442,0.88251096,-0.75184512
1314362987.92059064,-0.56698620,0.88187855,-0.75060087
1314362987.97352099,-0.56420976,0.88212246,-0.75232661
1314362988.02049875,-0.56756961,0.88564277,-0.75523955
1314362988.06864357,-0.56475312,0.88100326,-0.75463790
1314362988.12147307,-0.56832683,0.88206476,-0.75458342
1314362988.16857934,-0.56708020,0.88207376,-0.75666505
1314362988.22149372,-0.56882441,0.88428062,-0.75799400
1314362988.26849437,-0.56580222,0.88210154,-0.76049495
1314362988.32062125,-0.56996959,0.88251454,-0.75898921
1314362988.36951280,-0.56591809,0.88623351,-0.76416713
1314362988.42063308,-0.57102925,0.88113987,-0.76079005
1314362988.46858716,-0.56911415,0.88267660,-0.76297915
1314362988.52050185,-0.57211035,0.88142878,-0.76273930
1314362988.56971002,-0.56843597,0.88282305,-0.76536393
1314362988.62151647,-0.57181066,0.88131803,-0.76460558
1314362988.66162348,-0.56783521,0.88257653,-0.76680803
1314362988.72059369,-0.56959736,0.88514501,-0.76612163
1314362988.76950645,-0.56998420,0.88284695,-0.76599211
1314362988.81884050,-0.57088894,0.88430059,-0.76942056
1314362988.86857843,-0.57005686,0.88273323,-0.76720691
1314362988.92157173,-0.57230693,0.88044518,-0.76610839
1314362988.96860576,-0.57037026,0.88338196,-0.76776838
1314362989.02148581,-0.57271749,0.88200611,-0.76816303
1314362989.06845093,-0.56958771,0.88274252,-0.76852590
1314362989.12058640,-0.57235706,0.88058245,-0.76691997
1314362989.16948223,-0.56863284,0.88480031,-0.77063990
1314362989.22151470,-0.57083434,0.88273346,-0.76644427
1314362989.26862288,-0.56982809,0.88156533,-0.76583886
1314362989.32047844,-0.57139981,0.88146609,-0.76687127
1314362989.36848211,-0.57031202,0.88120067,-0.76707554
1314362989.42143798,-0.57089031,0.88169819,-0.76522827
1314362989.46851254,-0.57028025,0.88234353,-0.76640928
1314362989.52051926,-0.57119405,0.88129908,-0.76349294
1314362989.57322621,-0.56964231,0.87963969,-0.76527518
1314362989.62046671,-0.57097721,0.88337433,-0.76645738
1314362989.66952038,-0.56987268,0.88218737,-0.76423085
1314362989.70947385,-0.56994379,0.88409102,-0.76290321
1314362989.76850915,-0.57140851,0.88271958,-0.76459289
1314362989.82146311,-0.57201654,0.88181853,-0.76340979
1314362989.86850238,-0.56727344,0.88343686,-0.76422447
1314362989.92046165,-0.57168788,0.88027328,-0.76270616
1314362989.96951842,-0.56858492,0.88423097,-0.76538318
1314362990.02145934,-0.56977296,0.88112223,-0.76044804
1314362990.06944799,-0.56992513,0.87985009,-0.76085109
1314362990.12147403,-0.57144469,0.88037914,-0.76094300
1314362990.16854525,-0.56752509,0.88162357,-0.76180249
1314362990.22146392,-0.57091701,0.88229203,-0.76106149
1314362990.26850462,-0.56942582,0.88033938,-0.75934523
1314362990.32048011,-0.57086337,0.88187402,-0.75795925
1314362990.36946559,-0.56820029,0.88007236,-0.75954157
1314362990.42052960,-0.56867373,0.88455665,-0.76000649
1314362990.46853805,-0.56901968,0.88020825,-0.75945538
1314362990.52125072,-0.56841898,0.88233769,-0.75607145
1314362990.56857681,-0.56802112,0.88016570,-0.75657052
1314362990.62147307,-0.57214588,0.88123357,-0.75654793
1314362990.66947651,-0.56776398,0.88042134,-0.75682682
1314362990.72052026,-0.57026172,0.88183314,-0.75482821
1314362990.76939726,-0.56596202,0.88297617,-0.75849169
1314362990.82153177,-0.56993717,0.87977803,-0.75425553
1314362990.86956310,-0.56732565,0.88153583,-0.75398308
1314362990.92144322,-0.57079959,0.88017750,-0.75484687
1314362990.96852160,-0.56643593,0.88268775,-0.75501716
1314362991.02148104,-0.56806123,0.87935793,-0.75279778
1314362991.06939483,-0.56760675,0.88105428,-0.75641865
1314362991.12054586,-0.56898236,0.88081461,-0.75649643
1314362991.16945577,-0.56809384,0.88005197,-0.75778532
1314362991.22055149,-0.56887096,0.88278246,-0.76121598
1314362991.26853919,-0.56855160,0.87932414,-0.76090229
1314362991.32150865,-0.57051098,0.88113970,-0.76129854
1314362991.36852908,-0.57032037,0.88153571,-0.76263654
1314362991.42144752,-0.57271260,0.88067907,-0.76371074
1314362991.46905684,-0.56812680,0.88064325,-0.76506048
1314362991.52053142,-0.57300603,0.87968922,-0.76641238
1314362991.56945586,-0.56719792,0.88375205,-0.76974136
1314362991.62125802,-0.57354420,0.87997329,-0.76846474
1314362991.66853237,-0.57218742,0.88036895,-0.77094674
1314362991.72050357,-0.57442951,0.88206142,-0.77149302
1314362991.76853108,-0.57165056,0.88215244,-0.77092916
1314362991.82151294,-0.57420665,0.88132715,-0.77470517
1314362991.86956930,-0.57314342,0.88106644,-0.77531475
1314362991.92051744,-0.57621086,0.87865859,-0.77412796
1314362991.96949339,-0.57445604,0.87994593,-0.77672827
1314362992.01844978,-0.57289922,0.88469309,-0.77990448
1314362992.06973600,-0.57333899,0.87995499,-0.77868283
1314362992.11107826,-0.57660443,0.88100696,-0.77807200
1314362992.16953087,-0.57550067,0.88063562,-0.78029370
1314362992.22147846,-0.57540166,0.88344979,-0.78057832
1314362992.26938605,-0.57283223,0.88227957,-0.78136313
1314362992.32152033,-0.57667804,0.88204229,-0.77916092
1314362992.36947751,-0.57257175,0.88488191,-0.78580970
1314362992.42151141,-0.57558936,0.87960654,-0.77961802
1314362992.47062206,-0.57284355,0.88164347,-0.78162825
1314362992.52140331,-0.57664585,0.87989074,-0.78116196
1314362992.56852317,-0.57223254,0.88011849,-0.78306210
1314362992.62148666,-0.57627749,0.88142639,-0.78169066
1314362992.66851473,-0.57551438,0.88117361,-0.78272146
1314362992.72047138,-0.57595485,0.88166946,-0.78086615
1314362992.77348304,-0.57518530,0.87870991,-0.77985716
1314362992.82185364,-0.57482809,0.88267314,-0.78027010
1314362992.86852145,-0.57323807,0.87944978,-0.77934623
1314362992.92107654,-0.57642984,0.87946641,-0.77764648
1314362992.96950674,-0.57267457,0.88199413,-0.77879435
1314362993.02146506,-0.57513869,0.88122934,-0.77650821
1314362993.06945992,-0.57171488,0.88272488,-0.77645600
1314362993.12054348,-0.57531404,0.87891555,-0.77515489
1314362993.16952682,-0.57055163,0.88515055,-0.77734923
1314362993.21917796,-0.57411760,0.88041651,-0.77334708
1314362993.26852989,-0.57261848,0.88142318,-0.77340257
1314362993.32159328,-0.57389086,0.87950426,-0.77198106
1314362993.36853004,-0.56954277,0.87780488,-0.77292818
1314362993.42147708,-0.57320708,0.88013548,-0.77194625
1314362993.46849012,-0.57087207,0.88202435,-0.77169079
1314362993.52051950,-0.57337368,0.87996542,-0.76791638
1314362993.56950951,-0.57010645,0.88263988,-0.77030504
1314362993.62123871,-0.57123107,0.88342297,-0.77064520
1314362993.67172408,-0.56954694,0.87967098,-0.76823127
1314362993.70924187,-0.57100183,0.88235784,-0.76698953
1314362993.76852989,-0.57169378,0.88172817,-0.76715946
1314362993.82144165,-0.57240528,0.88181865,-0.76302850
1314362993.86928964,-0.57009125,0.88309801,-0.76546180
1314362993.92153025,-0.57274145,0.87813151,-0.76450086
1314362993.96945572,-0.56850654,0.88449603,-0.76632285
1314362994.02112412,-0.57263392,0.87900448,-0.76261669
1314362994.06853890,-0.57033479,0.88026190,-0.76303160
1314362994.12157750,-0.57066256,0.88201278,-0.75916016
1314362994.16852760,-0.56855971,0.88034695,-0.76091045
1314362994.22157168,-0.56937391,0.88290733,-0.76043838
1314362994.26901913,-0.56827289,0.88097984,-0.76062942
1314362994.32156181,-0.57172245,0.87995028,-0.75651383
1314362994.36946607,-0.56579977,0.88194865,-0.75820535
1314362994.42168713,-0.56953269,0.88365412,-0.75843412
1314362994.46850705,-0.56584752,0.88091177,-0.75685424
1314362994.52062583,-0.57013577,0.88007140,-0.75749981
1314362994.56928921,-0.56779158,0.88183081,-0.75710821
1314362994.62146616,-0.56882006,0.88080835,-0.75608313
1314362994.66930652,-0.56718522,0.88206911,-0.75613266
1314362994.72148037,-0.57059360,0.88171947,-0.75578880
1314362994.76947904,-0.56607819,0.88539910,-0.75784355
1314362994.81885600,-0.57056057,0.87875229,-0.75334162
1314362994.86947060,-0.56826961,0.88001132,-0.75389159
1314362994.92148709,-0.56860304,0.88025618,-0.75256670
1314362994.96854448,-0.56586188,0.88303512,-0.75229442
1314362995.02150273,-0.56884623,0.88117152,-0.75420290
1314362995.06852627,-0.56696421,0.87998432,-0.75273907
1314362995.12118912,-0.56994081,0.88039225,-0.75197208
1314362995.16947269,-0.56683755,0.88241029,-0.75261539
1314362995.22130823,-0.56696093,0.88368565,-0.75222826
1314362995.26853800,-0.56752199,0.87996727,-0.75061750
1314362995.32051921,-0.57032651,0.88000882,-0.75158763
1314362995.36852622,-0.56561363,0.88148052,-0.75065309
1314362995.42146850,-0.56761169,0.87906605,-0.74994284
1314362995.46849489,-0.56721973,0.88174611,-0.74994034
1314362995.52154732,-0.56719631,0.87982678,-0.74978995
1314362995.56953526,-0.56358016,0.88442355,-0.75298053
1314362995.62047863,-0.56929088,0.88013637,-0.75260556
1314362995.66854024,-0.56702363,0.87922972,-0.75381368
1314362995.70948052,-0.56864232,0.88194793,-0.75527382
1314362995.76947641,-0.56905001,0.88006163,-0.75770611
1314362995.82154202,-0.56954205,0.88174105,-0.75882405
